Regional Weather Roundup
Issued by NWS

Home | Current Version | Previous Version | Graphics & Text | Print | Product List | Glossary On
Versions: 1 2 3 4 5 6 7 8 9 10 11 12 13 14 15 16 17 18 19 20 21 22 23 24 25 26 27 28 29 30 31 32 33 34 35 36 37 38 39 40 41 42 43 44 45 46 47 48 49 50
000
ASUS45 KBOU 140610
RWRCO

WEATHER ROUNDUP FOR COLORADO
NATIONAL WEATHER SERVICE DENVER/BOULDER CO
1200 AM MDT MON JUL 14 2014

NOTE: "FAIR" INDICATES FEW OR NO CLOUDS BELOW 12000 FEET WITH NO
SIGNIFICANT WEATHER AND/OR OBSTRUCTIONS TO VISIBILITY.

COZ001>005-013-030-031-140700-
...NORTHWEST COLORADO...

CITY           SKY/WX    TMP DP  RH WIND       PRES   REMARKS
CRAIG          CLEAR     53  52  96 CALM      30.30R
HAYDEN         CLEAR     68  46  45 SE10      30.32R
MEEKER         CLEAR     66  46  48 E6        30.30R
MOUNT WERNER   NOT AVBL
STEAMBOAT SPGS CLEAR     63  46  54 CALM      30.36R
WALDEN         CLEAR     55  46  71 CALM      30.46S
$$

COZ006>008-011-140700-
...WEST CENTRAL VALLEYS...

CITY           SKY/WX    TMP DP  RH WIND       PRES   REMARKS
GRAND JUNCTION PTCLDY    80  40  23 E6        30.11S
MONTROSE       MOCLDY    74  47  38 S8        30.22R
EAGLE          PTCLDY    64  50  59 E6        30.34R
RIFLE          CLEAR     71  46  40 SE10      30.21R
DELTA          MOCLDY    80  43  26 E12       30.16S
NUCLA          MOCLDY    75  43  31 E9        30.25S
$$

COZ017>023-064>068-140700-
...SOUTHWEST COLORADO...

CITY           SKY/WX    TMP DP  RH WIND       PRES   REMARKS
DURANGO        CLOUDY    63  55  75 E7        30.33R
CORTEZ         CLEAR     74  49  41 SW12      30.26R
PAGOSA SPRINGS CLOUDY    57  57  97 CALM      30.43R
TELLURIDE      CLOUDY    63  46  55 CALM      30.49S
WOLF CREEK PAS NOT AVBL
$$

COZ009-010-012-014-032>034-037-058>063-140700-
...CENTRAL COLORADO...

CITY           SKY/WX    TMP DP  RH WIND       PRES   REMARKS
ASPEN          PTCLDY    59  46  62 SW9       30.41R
BUENA VISTA    MOCLDY    60  53  76 CALM      30.48S
COPPER MTN     PTCLDY    54  37  54 W6        30.76S
BERTHOUD PASS  MOCLDY    43  32  65 E3        30.81S
COTTONWOOD PAS MOCLDY    59  52  77 W6        30.61F
GUNNISON       MOCLDY    64  48  55 NE9       30.43R
KREMMLING      CLEAR     59  46  63 CALM      30.42R
LEADVILLE      PTCLDY    50  47  89 E5        30.60R
MONARCH PASS   FOG       48  46  93 E17       30.84S VSB<1/4
SALIDA         CLOUDY   N/A N/A N/A CALM      30.52S
SUNLIGHT       PTCLDY    55  43  62 NE6       30.66S
WILKERSON PASS MOCLDY    46  46 100 N5        30.74S FOG
$$

COZ069>075-140700-
...SAN LUIS VALLEY/SANGRE DE CRISTO MOUNTAINS...

CITY           SKY/WX    TMP DP  RH WIND       PRES   REMARKS
ALAMOSA        CLOUDY    62  52  69 SE13      30.41R
LA VETA PASS   FOG       54  52  94 NE6       30.61F VSB 1
SAGUACHE       NOT AVBL
$$

COZ035-036-038>040-140700-
...NORTHERN COLORADO FRONT RANGE...

CITY           SKY/WX    TMP DP  RH WIND       PRES   REMARKS
DENVER INTL AP PTCLDY    66  60  81 SW9       30.29S
DMNS CITY PARK   N/A     65  60  84 SE1       30.28S
AURORA         PTCLDY    64  60  85 S3        30.32S
FRONT RANGE AP NOT AVBL
ERIE MUNI ARPT CLEAR     62  60  92 CALM      30.28S
BOULDER MUN AP CLEAR     64  61  88 SW6       30.28F
CENTENNIAL     PTCLDY    66  57  72 CALM      30.32F
BROOMFIELD     CLEAR     63  59  88 W7        30.32S
FORT COLLINS   CLEAR     64  59  82 SW8       30.27S
LONGMONT       CLEAR     65  61  86 CALM      30.29S
$$

COZ041-046-047-076>085-087-088-140700-
...PIKES PEAK/PALMER DIVIDE AND SOUTHERN FOOTHILLS...

CITY           SKY/WX    TMP DP  RH WIND       PRES   REMARKS
COLO. SPRINGS  LGT RAIN  66  61  84 SE8       30.37S
A. F. ACADEMY  MOCLDY    64  64  99 SE5       30.39R
ELLICOTT       CLOUDY    63  60  90 SE9       30.35S
FALCON         CLOUDY    60  59  95 E3        30.42R
FORT CARSON    CLOUDY    68  61  77 SE14G20   30.35R
LIMON          PTCLDY    60  58  92 S3        30.31F
MONUMENT HILL  PTCLDY    61  55  82 SW5       30.41R
TRINIDAD       CLOUDY    70  61  73 W5        30.30S
$$

COZ042>045-048>051-090-091-140700-
...NORTHEAST COLORADO...

CITY           SKY/WX    TMP DP  RH WIND       PRES   REMARKS
GREELEY ARPT   NOT AVBL
AKRON          CLEAR     62  57  83 S8        30.25S
BURLINGTON     PTCLDY    64  61  90 SW10      30.23R
WRAY           CLEAR     62  61  96 SW10      30.19S
STERLING       CLEAR     64  63  94 SW7       30.21R
HOLYOKE        CLEAR     63  59  88 SW8       30.18S
FORT MORGAN    CLEAR     62  58  84 S3        30.26R
$$

COZ086-089-092>099-140700-
...SOUTHEAST COLORADO...

CITY           SKY/WX    TMP DP  RH WIND       PRES   REMARKS
PUEBLO         CLOUDY    69  62  78 SE8       30.27R
LA JUNTA       CLOUDY    69  62  78 E10       30.23R
LAMAR          CLOUDY    67  62  84 CALM      30.18R
SPRINGFIELD      N/A     69  62  78 E5        30.25S
$$



USA.gov is the U.S. government's official web portal to all federal, state and local government web resources and services.